TimeEDT,TemperatureF,Dew PointF,Humidity,Sea Level PressureIn,VisibilityMPH,Wind Direction,Wind SpeedMPH,Gust SpeedMPH,PrecipitationIn,Events,Conditions,WindDirDegrees,DateUTC
12:15 AM,33.8,33.8,100,29.89,2.5,ENE,5.8,-,N/A,Rain,Light Rain,60,2013-03-19 04:15:00
12:35 AM,33.8,33.8,100,29.88,2.5,ENE,8.1,-,N/A,,Overcast,60,2013-03-19 04:35:00
12:55 AM,33.8,33.8,100,29.88,2.0,NE,5.8,-,N/A,Rain,Light Rain,50,2013-03-19 04:55:00
1:15 AM,33.8,33.8,100,29.86,2.0,NE,5.8,-,N/A,Rain,Light Rain,50,2013-03-19 05:15:00
1:35 AM,33.8,33.8,100,29.85,2.5,NE,4.6,-,N/A,,Overcast,50,2013-03-19 05:35:00
1:55 AM,35.6,33.8,93,29.86,1.2,NE,4.6,-,0.10,Rain,Rain,40,2013-03-19 05:55:00
2:15 AM,35.6,35.6,100,29.84,3.0,NE,3.5,-,0.03,,Overcast,50,2013-03-19 06:15:00
2:35 AM,35.6,35.6,100,29.84,6.0,NE,4.6,-,0.03,,Overcast,40,2013-03-19 06:35:00
2:55 AM,35.6,35.6,100,29.82,10.0,NE,5.8,-,0.03,,Overcast,40,2013-03-19 06:55:00
3:15 AM,35.6,35.6,100,29.81,10.0,NE,5.8,-,N/A,,Overcast,40,2013-03-19 07:15:00
3:35 AM,35.6,35.6,100,29.81,10.0,NE,4.6,-,N/A,,Overcast,40,2013-03-19 07:35:00
3:55 AM,35.6,33.8,93,29.81,8.0,NE,5.8,-,N/A,,Overcast,40,2013-03-19 07:55:00
4:15 AM,35.6,35.6,100,29.79,2.5,NE,5.8,-,N/A,,Overcast,50,2013-03-19 08:15:00
4:35 AM,33.8,33.8,100,29.78,0.5,NE,5.8,-,N/A,Fog,Fog,40,2013-03-19 08:35:00
4:55 AM,33.8,33.8,100,29.79,0.5,NNE,4.6,-,N/A,Fog,Fog,30,2013-03-19 08:55:00
5:15 AM,33.8,33.8,100,29.78,0.5,NE,3.5,-,N/A,Fog,Fog,50,2013-03-19 09:15:00
5:35 AM,33.8,33.8,100,29.77,0.5,NE,3.5,-,N/A,Fog,Fog,40,2013-03-19 09:35:00
6:15 AM,33.8,33.8,100,29.77,0.5,NNE,4.6,-,N/A,,Overcast,30,2013-03-19 10:15:00
6:35 AM,33.8,33.8,100,29.76,0.8,NE,3.5,-,N/A,,Overcast,50,2013-03-19 10:35:00
6:55 AM,33.8,33.8,100,29.76,0.5,NE,3.5,-,N/A,Fog,Fog,50,2013-03-19 10:55:00
7:15 AM,35.6,35.6,100,29.76,0.8,Calm,Calm,-,N/A,,Overcast,0,2013-03-19 11:15:00
7:35 AM,33.8,33.8,100,29.76,0.2,Calm,Calm,-,N/A,Fog,Fog,0,2013-03-19 11:35:00
7:55 AM,33.8,33.8,100,29.77,0.2,Calm,Calm,-,N/A,Fog,Fog,0,2013-03-19 11:55:00
8:15 AM,33.8,33.8,100,29.78,0.2,North,4.6,-,N/A,Fog,Fog,360,2013-03-19 12:15:00
8:35 AM,33.8,33.8,100,29.78,0.2,North,3.5,-,N/A,Rain,Light Rain,360,2013-03-19 12:35:00
8:55 AM,33.8,33.8,100,29.80,0.2,NW,5.8,-,0.01,Rain,Light Rain,320,2013-03-19 12:55:00
9:15 AM,35.6,35.6,100,29.81,1.2,NW,6.9,-,N/A,,Overcast,310,2013-03-19 13:15:00
9:35 AM,35.6,35.6,100,29.80,1.5,NNW,6.9,-,N/A,Rain,Light Rain,330,2013-03-19 13:35:00
9:55 AM,35.6,35.6,100,29.79,1.5,NNW,6.9,-,0.02,,Overcast,340,2013-03-19 13:55:00
10:15 AM,35.6,35.6,100,29.79,3.0,NNW,5.8,-,N/A,,Overcast,340,2013-03-19 14:15:00
10:35 AM,35.6,35.6,100,29.80,4.0,NW,9.2,-,N/A,,Overcast,320,2013-03-19 14:35:00
10:55 AM,35.6,35.6,100,29.80,4.0,NW,6.9,-,N/A,,Overcast,320,2013-03-19 14:55:00
11:15 AM,37.4,37.4,100,29.79,6.0,NNW,9.2,-,N/A,,Overcast,340,2013-03-19 15:15:00
11:35 AM,39.2,37.4,93,29.79,7.0,NNW,5.8,-,N/A,,Overcast,330,2013-03-19 15:35:00
11:55 AM,41.0,37.4,87,29.79,10.0,NNW,6.9,-,N/A,,Overcast,330,2013-03-19 15:55:00
12:15 PM,42.8,37.4,81,29.78,10.0,NW,4.6,-,N/A,,Mostly Cloudy,310,2013-03-19 16:15:00
12:35 PM,42.8,37.4,81,29.77,10.0,NW,9.2,-,N/A,,Scattered Clouds,320,2013-03-19 16:35:00
12:55 PM,44.6,35.6,71,29.77,10.0,NW,15.0,-,N/A,,Scattered Clouds,320,2013-03-19 16:55:00
1:15 PM,46.4,35.6,66,29.75,10.0,NW,10.4,21.9,N/A,,Partly Cloudy,320,2013-03-19 17:15:00
1:35 PM,46.4,35.6,66,29.76,10.0,WNW,15.0,-,N/A,,Scattered Clouds,300,2013-03-19 17:35:00
1:55 PM,44.6,33.8,66,29.76,10.0,NW,17.3,-,N/A,,Scattered Clouds,320,2013-03-19 17:55:00
2:15 PM,46.4,35.6,66,29.75,10.0,NW,11.5,16.1,N/A,,Scattered Clouds,310,2013-03-19 18:15:00
2:35 PM,46.4,30.2,53,29.75,10.0,NW,19.6,-,N/A,,Mostly Cloudy,310,2013-03-19 18:35:00
2:55 PM,46.4,30.2,53,29.75,10.0,WNW,15.0,-,N/A,,Partly Cloudy,300,2013-03-19 18:55:00
3:15 PM,46.4,32.0,57,29.75,10.0,NNW,15.0,21.9,N/A,,Scattered Clouds,330,2013-03-19 19:15:00
3:35 PM,48.2,32.0,54,29.74,10.0,NW,12.7,-,N/A,,Mostly Cloudy,310,2013-03-19 19:35:00
3:55 PM,48.2,32.0,54,29.74,10.0,West,11.5,16.1,N/A,,Clear,280,2013-03-19 19:55:00
4:15 PM,48.2,32.0,54,29.73,10.0,WNW,10.4,-,N/A,,Partly Cloudy,300,2013-03-19 20:15:00
4:35 PM,48.2,32.0,54,29.73,10.0,West,10.4,19.6,N/A,,Clear,270,2013-03-19 20:35:00
4:55 PM,50.0,32.0,50,29.72,10.0,West,8.1,16.1,N/A,,Partly Cloudy,270,2013-03-19 20:55:00
5:15 PM,48.2,32.0,54,29.72,10.0,West,5.8,-,N/A,,Clear,260,2013-03-19 21:15:00
5:35 PM,50.0,32.0,50,29.71,10.0,West,9.2,-,N/A,,Clear,270,2013-03-19 21:35:00
5:55 PM,50.0,32.0,50,29.72,10.0,West,10.4,16.1,N/A,,Clear,280,2013-03-19 21:55:00
6:15 PM,48.2,32.0,54,29.72,10.0,West,11.5,21.9,N/A,,Partly Cloudy,280,2013-03-19 22:15:00
6:35 PM,50.0,23.0,35,29.73,10.0,WNW,21.9,31.1,N/A,,Partly Cloudy,290,2013-03-19 22:35:00
6:55 PM,48.2,23.0,37,29.74,10.0,West,17.3,35.7,N/A,,Clear,280,2013-03-19 22:55:00
7:15 PM,46.4,21.2,37,29.74,10.0,WNW,21.9,27.6,N/A,,Clear,290,2013-03-19 23:15:00
7:35 PM,46.4,21.2,37,29.76,10.0,WNW,17.3,21.9,N/A,,Clear,290,2013-03-19 23:35:00
7:55 PM,46.4,19.4,34,29.76,10.0,West,17.3,24.2,N/A,,Clear,280,2013-03-19 23:55:00
8:15 PM,44.6,21.2,39,29.78,10.0,WNW,15.0,23.0,N/A,,Clear,290,2013-03-20 00:15:00
8:35 PM,44.6,21.2,39,29.80,10.0,NW,18.4,24.2,N/A,,Clear,310,2013-03-20 00:35:00
8:55 PM,42.8,17.6,36,29.81,10.0,NW,21.9,35.7,N/A,,Clear,310,2013-03-20 00:55:00
9:15 PM,41.0,17.6,39,29.82,10.0,WNW,21.9,35.7,N/A,,Clear,300,2013-03-20 01:15:00
9:35 PM,39.2,19.4,45,29.83,10.0,NW,17.3,24.2,N/A,,Clear,320,2013-03-20 01:35:00
9:55 PM,39.2,21.2,49,29.85,10.0,NW,17.3,24.2,N/A,,Clear,320,2013-03-20 01:55:00
10:15 PM,37.4,21.2,52,29.85,10.0,NW,15.0,25.3,N/A,,Clear,320,2013-03-20 02:15:00
10:35 PM,37.4,21.2,52,29.85,10.0,NW,17.3,23.0,N/A,,Clear,320,2013-03-20 02:35:00
10:55 PM,37.4,21.2,52,29.86,10.0,NW,16.1,23.0,N/A,,Partly Cloudy,310,2013-03-20 02:55:00
11:15 PM,35.6,21.2,56,29.86,10.0,NW,12.7,-,N/A,,Partly Cloudy,320,2013-03-20 03:15:00
11:35 PM,35.6,21.2,56,29.88,10.0,NW,16.1,-,N/A,,Clear,310,2013-03-20 03:35:00
11:55 PM,35.6,21.2,56,29.88,10.0,NW,12.7,20.7,N/A,,Partly Cloudy,310,2013-03-20 03:55:00